Time,TemperatureF,DewpointF,PressureIn,WindDirection,WindDirectionDegrees,WindSpeedMPH,WindSpeedGustMPH,Humidity,HourlyPrecipIn,Conditions,Clouds,dailyrainin,SoftwareType,DateUTC
2013-02-19 00:02:00,51.2,-99.9,-29.53,West,262,0.0,2.3,-999,0.00,,,-99.99,,2013-02-19 08:02:00,
2013-02-19 00:07:00,51.3,-99.9,-29.53,West,262,0.0,0.0,-999,0.00,,,-99.99,,2013-02-19 08:07:00,
2013-02-19 00:13:00,51.4,-99.9,-29.53,West,262,0.0,0.0,-999,0.00,,,-99.99,,2013-02-19 08:13:00,
2013-02-19 00:18:00,51.3,-99.9,-29.53,West,262,0.0,0.0,-999,0.00,,,-99.99,,2013-02-19 08:18:00,
2013-02-19 00:23:00,51.1,-99.9,-29.53,West,262,0.0,0.0,-999,0.00,,,-99.99,,2013-02-19 08:23:00,
2013-02-19 00:28:00,51.1,-99.9,-29.53,West,262,0.0,0.0,-999,0.00,,,-99.99,,2013-02-19 08:28:00,
2013-02-19 00:33:00,51.3,-99.9,-29.53,West,262,0.0,0.0,-999,0.00,,,-99.99,,2013-02-19 08:33:00,
2013-02-19 00:38:00,51.4,-99.9,-29.53,West,262,0.0,0.0,-999,0.00,,,-99.99,,2013-02-19 08:38:00,
2013-02-19 00:43:00,51.4,-99.9,-29.53,SW,234,0.0,5.7,-999,0.00,,,-99.99,,2013-02-19 08:43:00,
2013-02-19 00:49:00,51.5,-99.9,-29.53,SW,234,0.0,0.0,-999,0.00,,,-99.99,,2013-02-19 08:49:00,
2013-02-19 00:54:00,51.6,-99.9,-29.53,SW,234,0.0,0.0,-999,0.00,,,-99.99,,2013-02-19 08:54:00,
2013-02-19 00:59:00,51.6,-99.9,-29.53,WSW,237,0.0,2.2,-999,0.00,,,-99.99,,2013-02-19 08:59:00,
2013-02-19 01:02:00,54.4,-99.9,-29.53,SE,130,0.0,0.0,-999,0.00,,,-99.99,,2013-02-19 09:02:00,
2013-02-19 01:04:00,51.2,-99.9,-29.53,WSW,237,0.0,0.0,-999,0.00,,,-99.99,,2013-02-19 09:04:00,
2013-02-19 01:09:00,51.1,-99.9,-29.53,South,189,0.0,6.8,-999,0.00,,,-99.99,,2013-02-19 09:09:00,
2013-02-19 01:14:00,51.3,-99.9,-29.53,SW,236,6.0,8.5,-999,0.00,,,-99.99,,2013-02-19 09:14:00,
2013-02-19 01:20:00,51.6,-99.9,-29.53,SW,236,0.0,8.0,-999,0.00,,,-99.99,,2013-02-19 09:20:00,
2013-02-19 01:25:00,51.5,-99.9,-29.53,SW,229,0.0,4.4,-999,0.00,,,-99.99,,2013-02-19 09:25:00,
2013-02-19 01:30:00,51.7,-99.9,-29.53,SW,229,0.0,0.0,-999,0.00,,,-99.99,,2013-02-19 09:30:00,
2013-02-19 01:35:00,51.6,-99.9,-29.53,SSW,203,1.8,1.8,-999,0.00,,,-99.99,,2013-02-19 09:35:00,
2013-02-19 01:40:00,51.5,-99.9,-29.53,SSW,203,0.0,0.0,-999,0.00,,,-99.99,,2013-02-19 09:40:00,
2013-02-19 01:45:00,51.3,-99.9,-29.53,SSW,203,0.0,0.0,-999,0.00,,,-99.99,,2013-02-19 09:45:00,
2013-02-19 01:50:00,51.2,-99.9,-29.53,SSW,203,0.0,0.0,-999,0.00,,,-99.99,,2013-02-19 09:50:00,
2013-02-19 01:56:00,51.3,-99.9,-29.53,SSW,203,0.0,0.0,-999,0.00,,,-99.99,,2013-02-19 09:56:00,
2013-02-19 02:01:00,51.3,-99.9,-29.53,SSW,203,0.0,0.0,-999,0.00,,,-99.99,,2013-02-19 10:01:00,
2013-02-19 02:02:00,59.2,-99.9,-29.53,SE,136,0.0,0.0,-999,0.00,,,-99.99,,2013-02-19 10:02:00,
2013-02-19 02:11:00,51.0,-99.9,-29.53,SSW,203,0.0,0.0,-999,0.00,,,-99.99,,2013-02-19 10:11:00,
2013-02-19 02:16:00,51.2,-99.9,-29.53,SSW,203,0.0,0.0,-999,0.00,,,-99.99,,2013-02-19 10:16:00,
2013-02-19 02:21:00,51.2,-99.9,-29.53,SSW,203,0.0,0.0,-999,0.00,,,-99.99,,2013-02-19 10:21:00,
2013-02-19 02:27:00,51.4,-99.9,-29.53,WSW,251,0.0,3.1,-999,0.00,,,-99.99,,2013-02-19 10:27:00,
2013-02-19 02:32:00,51.8,-99.9,-29.53,WSW,251,0.0,0.0,-999,0.00,,,-99.99,,2013-02-19 10:32:00,
2013-02-19 02:37:00,51.7,-99.9,-29.53,WSW,251,0.0,0.0,-999,0.00,,,-99.99,,2013-02-19 10:37:00,
2013-02-19 02:42:00,51.7,-99.9,-29.53,WSW,251,0.0,0.0,-999,0.00,,,-99.99,,2013-02-19 10:42:00,
2013-02-19 02:47:00,51.4,-99.9,-29.53,WSW,251,0.0,0.0,-999,0.00,,,-99.99,,2013-02-19 10:47:00,
2013-02-19 02:52:00,51.4,-99.9,-29.53,WSW,251,0.0,0.0,-999,0.00,,,-99.99,,2013-02-19 10:52:00,
2013-02-19 02:57:00,51.2,-99.9,-29.53,WSW,251,0.0,0.0,-999,0.00,,,-99.99,,2013-02-19 10:57:00,
2013-02-19 03:02:00,59.3,-99.9,-29.53,South,180,0.0,0.0,-999,0.00,,,-99.99,,2013-02-19 11:02:00,
2013-02-19 03:03:00,51.0,-99.9,-29.53,WSW,251,0.0,0.0,-999,0.00,,,-99.99,,2013-02-19 11:03:00,
2013-02-19 03:08:00,50.7,-99.9,-29.53,WSW,251,0.0,0.0,-999,0.00,,,-99.99,,2013-02-19 11:08:00,
2013-02-19 03:13:00,50.9,-99.9,-29.53,WSW,251,0.0,0.0,-999,0.00,,,-99.99,,2013-02-19 11:13:00,
2013-02-19 03:18:00,50.8,-99.9,-29.53,WSW,251,0.0,0.0,-999,0.00,,,-99.99,,2013-02-19 11:18:00,
2013-02-19 03:23:00,50.8,-99.9,-29.53,WSW,251,0.0,0.0,-999,0.00,,,-99.99,,2013-02-19 11:23:00,
2013-02-19 03:28:00,50.8,-99.9,-29.53,WSW,251,0.0,0.0,-999,0.00,,,-99.99,,2013-02-19 11:28:00,
2013-02-19 03:34:00,50.6,-99.9,-29.53,WSW,251,0.0,0.0,-999,0.00,,,-99.99,,2013-02-19 11:34:00,
2013-02-19 03:39:00,50.5,-99.9,-29.53,WSW,251,0.0,0.0,-999,0.00,,,-99.99,,2013-02-19 11:39:00,
2013-02-19 03:44:00,50.5,-99.9,-29.53,WSW,251,0.0,0.0,-999,0.00,,,-99.99,,2013-02-19 11:44:00,
2013-02-19 03:49:00,50.1,-99.9,-29.53,WSW,251,0.0,0.0,-999,0.00,,,-99.99,,2013-02-19 11:49:00,
2013-02-19 03:54:00,50.1,-99.9,-29.53,WSW,243,3.4,6.3,-999,0.00,,,-99.99,,2013-02-19 11:54:00,
2013-02-19 03:59:00,50.4,-99.9,-29.53,WSW,246,4.9,7.4,-999,0.00,,,-99.99,,2013-02-19 11:59:00,
2013-02-19 04:02:00,55.3,-99.9,-29.53,NE,39,0.0,0.0,-999,0.00,,,-99.99,,2013-02-19 12:02:00,
2013-02-19 04:04:00,50.7,-99.9,-29.53,WSW,237,0.0,4.7,-999,0.00,,,-99.99,,2013-02-19 12:04:00,
2013-02-19 04:10:00,51.1,-99.9,-29.53,WSW,237,0.0,0.0,-999,0.00,,,-99.99,,2013-02-19 12:10:00,
2013-02-19 04:15:00,51.2,-99.9,-29.53,WSW,237,0.0,0.0,-999,0.00,,,-99.99,,2013-02-19 12:15:00,
2013-02-19 04:20:00,51.2,-99.9,-29.53,WSW,237,0.0,0.0,-999,0.00,,,-99.99,,2013-02-19 12:20:00,
2013-02-19 04:25:00,51.2,-99.9,-29.53,WSW,237,0.0,0.0,-999,0.00,,,-99.99,,2013-02-19 12:25:00,
2013-02-19 04:30:00,51.0,-99.9,-29.53,WSW,237,0.0,0.0,-999,0.00,,,-99.99,,2013-02-19 12:30:00,
2013-02-19 04:35:00,50.9,-99.9,-29.53,WSW,237,0.0,0.0,-999,0.00,,,-99.99,,2013-02-19 12:35:00,
2013-02-19 04:41:00,50.6,-99.9,-29.53,WSW,237,0.0,0.0,-999,0.00,,,-99.99,,2013-02-19 12:41:00,
2013-02-19 04:46:00,50.8,-99.9,-29.53,WSW,237,0.0,0.0,-999,0.00,,,-99.99,,2013-02-19 12:46:00,
2013-02-19 04:51:00,50.9,-99.9,-29.53,WSW,237,0.0,0.0,-999,0.00,,,-99.99,,2013-02-19 12:51:00,
2013-02-19 04:56:00,51.2,-99.9,-29.53,WSW,237,0.0,0.0,-999,0.00,,,-99.99,,2013-02-19 12:56:00,
2013-02-19 05:01:00,51.2,-99.9,-29.53,WSW,237,0.0,0.0,-999,0.00,,,-99.99,,2013-02-19 13:01:00,
2013-02-19 05:02:00,61.5,-99.9,-29.53,North,355,0.0,0.0,-999,0.00,,,-99.99,,2013-02-19 13:02:00,
2013-02-19 05:11:00,51.4,-99.9,-29.53,WSW,237,0.0,0.0,-999,0.00,,,-99.99,,2013-02-19 13:11:00,
2013-02-19 05:17:00,51.1,-99.9,-29.53,WSW,237,0.0,0.0,-999,0.00,,,-99.99,,2013-02-19 13:17:00,
2013-02-19 05:22:00,50.9,-99.9,-29.53,WSW,237,0.0,0.0,-999,0.00,,,-99.99,,2013-02-19 13:22:00,
2013-02-19 05:27:00,50.7,-99.9,-29.53,WSW,237,0.0,0.0,-999,0.00,,,-99.99,,2013-02-19 13:27:00,
2013-02-19 05:32:00,51.0,-99.9,-29.53,WSW,237,0.0,0.0,-999,0.00,,,-99.99,,2013-02-19 13:32:00,
2013-02-19 05:37:00,50.9,-99.9,-29.53,WSW,237,0.0,0.0,-999,0.00,,,-99.99,,2013-02-19 13:37:00,
2013-02-19 05:42:00,50.6,-99.9,-29.53,WSW,237,0.0,0.0,-999,0.00,,,-99.99,,2013-02-19 13:42:00,
2013-02-19 05:48:00,50.5,-99.9,-29.53,WSW,237,0.0,0.0,-999,0.00,,,-99.99,,2013-02-19 13:48:00,
2013-02-19 05:53:00,50.3,-99.9,-29.53,WSW,237,0.0,0.0,-999,0.00,,,-99.99,,2013-02-19 13:53:00,
2013-02-19 05:58:00,50.0,-99.9,-29.53,SSW,201,0.0,7.8,-999,0.00,,,-99.99,,2013-02-19 13:58:00,
2013-02-19 06:02:00,58.8,-99.9,-29.53,South,180,0.0,0.0,-999,0.00,,,-99.99,,2013-02-19 14:02:00,
2013-02-19 06:03:00,50.2,-99.9,-29.53,SW,225,3.2,9.4,-999,0.00,,,-99.99,,2013-02-19 14:03:00,
2013-02-19 06:08:00,50.3,-99.9,-29.53,SW,234,0.0,8.8,-999,0.00,,,-99.99,,2013-02-19 14:08:00,
2013-02-19 06:13:00,50.6,-99.9,-29.53,South,182,3.1,8.7,-999,0.00,,,-99.99,,2013-02-19 14:13:00,
2013-02-19 06:18:00,50.7,-99.9,-29.53,SW,230,4.8,9.3,-999,0.00,,,-99.99,,2013-02-19 14:18:00,
2013-02-19 06:24:00,50.8,-99.9,-29.53,SSW,198,2.9,8.3,-999,0.00,,,-99.99,,2013-02-19 14:24:00,
2013-02-19 06:29:00,51.0,-99.9,-29.53,SSW,199,0.0,9.3,-999,0.00,,,-99.99,,2013-02-19 14:29:00,
2013-02-19 06:34:00,51.2,-99.9,-29.53,SSW,196,0.0,9.6,-999,0.00,,,-99.99,,2013-02-19 14:34:00,
2013-02-19 06:39:00,51.1,-99.9,-29.53,West,278,0.0,12.2,-999,0.00,,,-99.99,,2013-02-19 14:39:00,
2013-02-19 06:44:00,51.2,-99.9,-29.53,SW,225,0.0,7.6,-999,0.00,,,-99.99,,2013-02-19 14:44:00,
2013-02-19 06:49:00,51.3,-99.9,-29.53,South,181,0.0,8.4,-999,0.00,,,-99.99,,2013-02-19 14:49:00,
2013-02-19 06:54:00,51.3,-99.9,-29.53,South,181,0.0,0.0,-999,0.00,,,-99.99,,2013-02-19 14:54:00,
2013-02-19 07:00:00,51.6,-99.9,-29.53,SSW,192,0.0,7.8,-999,0.00,,,-99.99,,2013-02-19 15:00:00,
2013-02-19 07:02:00,62.4,-99.9,-29.53,NE,49,0.0,0.0,-999,0.00,,,-99.99,,2013-02-19 15:02:00,
2013-02-19 07:10:00,51.1,-99.9,-29.53,South,172,0.0,5.4,-999,0.00,,,-99.99,,2013-02-19 15:10:00,
2013-02-19 07:15:00,51.2,-99.9,-29.53,SSW,209,0.0,6.8,-999,0.00,,,-99.99,,2013-02-19 15:15:00,
2013-02-19 07:20:00,51.2,-99.9,-29.53,SSW,209,0.0,0.0,-999,0.00,,,-99.99,,2013-02-19 15:20:00,
2013-02-19 07:25:00,51.2,-99.9,-29.53,SW,222,6.3,6.5,-999,0.00,,,-99.99,,2013-02-19 15:25:00,
2013-02-19 07:31:00,51.1,-99.9,-29.53,SSW,205,0.0,6.7,-999,0.00,,,-99.99,,2013-02-19 15:31:00,
2013-02-19 07:36:00,51.1,-99.9,-29.53,SW,216,0.0,4.1,-999,0.00,,,-99.99,,2013-02-19 15:36:00,
2013-02-19 07:41:00,50.8,-99.9,-29.53,South,172,0.0,11.1,-999,0.00,,,-99.99,,2013-02-19 15:41:00,
2013-02-19 07:46:00,51.2,-99.9,-29.53,WSW,244,0.0,13.9,-999,0.00,,,-99.99,,2013-02-19 15:46:00,
2013-02-19 07:51:00,51.4,-99.9,-29.53,WSW,244,0.0,0.0,-999,0.00,,,-99.99,,2013-02-19 15:51:00,
2013-02-19 07:56:00,51.2,-99.9,-29.53,South,180,0.0,5.6,-999,0.00,,,-99.99,,2013-02-19 15:56:00,
2013-02-19 08:02:00,51.2,-99.9,-29.53,SSW,194,0.0,5.1,-999,0.00,,,-99.99,,2013-02-19 16:02:00,
2013-02-19 08:07:00,51.1,-99.9,-29.53,SW,215,0.0,4.7,-999,0.00,,,-99.99,,2013-02-19 16:07:00,
2013-02-19 08:12:00,51.2,-99.9,-29.53,WSW,246,8.3,8.3,-999,0.00,,,-99.99,,2013-02-19 16:12:00,
2013-02-19 08:17:00,51.2,-99.9,-29.53,SW,226,0.0,9.5,-999,0.00,,,-99.99,,2013-02-19 16:17:00,
2013-02-19 08:22:00,51.7,-99.9,-29.53,SW,225,5.1,8.7,-999,0.00,,,-99.99,,2013-02-19 16:22:00,
2013-02-19 08:27:00,51.5,-99.9,-29.53,South,185,0.0,10.6,-999,0.00,,,-99.99,,2013-02-19 16:27:00,
2013-02-19 08:32:00,51.6,-99.9,-29.53,South,174,0.0,8.4,-999,0.00,,,-99.99,,2013-02-19 16:32:00,
2013-02-19 08:38:00,51.5,-99.9,-29.53,South,170,0.0,10.6,-999,0.00,,,-99.99,,2013-02-19 16:38:00,
2013-02-19 08:43:00,51.6,-99.9,-29.53,WSW,239,0.0,11.0,-999,0.00,,,-99.99,,2013-02-19 16:43:00,
2013-02-19 08:48:00,51.9,-99.9,-29.53,SW,232,3.3,9.8,-999,0.00,,,-99.99,,2013-02-19 16:48:00,
2013-02-19 08:53:00,52.1,-99.9,-29.53,SW,230,4.8,9.8,-999,0.00,,,-99.99,,2013-02-19 16:53:00,
2013-02-19 08:58:00,51.8,-99.9,-29.53,WSW,251,5.4,14.2,-999,0.00,,,-99.99,,2013-02-19 16:58:00,
2013-02-19 09:02:00,87.4,-99.9,-29.53,South,188,0.0,0.0,-999,0.00,,,-99.99,,2013-02-19 17:02:00,
2013-02-19 09:03:00,52.1,-99.9,-29.53,SE,130,6.3,10.7,-999,0.00,,,-99.99,,2013-02-19 17:03:00,
2013-02-19 09:08:00,52.1,-99.9,-29.53,SSW,194,0.0,11.5,-999,0.00,,,-99.99,,2013-02-19 17:08:00,
2013-02-19 09:14:00,52.4,-99.9,-29.53,South,188,4.3,11.7,-999,0.00,,,-99.99,,2013-02-19 17:14:00,
2013-02-19 09:19:00,52.8,-99.9,-29.53,SW,233,7.4,12.3,-999,0.00,,,-99.99,,2013-02-19 17:19:00,
2013-02-19 09:24:00,52.6,-99.9,-29.53,WSW,239,8.7,15.5,-999,0.00,,,-99.99,,2013-02-19 17:24:00,
2013-02-19 09:29:00,52.8,-99.9,-29.53,SW,222,11.4,12.1,-999,0.00,,,-99.99,,2013-02-19 17:29:00,
2013-02-19 09:34:00,53.0,-99.9,-29.53,SW,223,6.1,12.2,-999,0.00,,,-99.99,,2013-02-19 17:34:00,
2013-02-19 09:39:00,53.0,-99.9,-29.53,SW,222,12.1,13.8,-999,0.00,,,-99.99,,2013-02-19 17:39:00,
2013-02-19 09:45:00,52.6,-99.9,-29.53,SSW,199,6.0,11.2,-999,0.00,,,-99.99,,2013-02-19 17:45:00,
2013-02-19 09:50:00,52.2,-99.9,-29.53,SSW,206,3.2,19.8,-999,0.00,,,-99.99,,2013-02-19 17:50:00,
2013-02-19 09:55:00,52.5,-99.9,-29.53,SSW,209,4.2,9.6,-999,0.00,,,-99.99,,2013-02-19 17:55:00,
2013-02-19 10:00:00,52.8,-99.9,-29.53,SSW,196,6.9,13.5,-999,0.00,,,-99.99,,2013-02-19 18:00:00,
2013-02-19 10:02:00,83.4,-99.9,-29.53,NNW,345,3.4,12.7,-999,0.00,,,-99.99,,2013-02-19 18:02:00,
2013-02-19 10:10:00,52.0,-99.9,-29.53,SW,236,0.0,15.8,-999,0.00,,,-99.99,,2013-02-19 18:10:00,
2013-02-19 10:15:00,51.9,-99.9,-29.53,South,188,5.7,11.9,-999,0.00,,,-99.99,,2013-02-19 18:15:00,
2013-02-19 10:21:00,51.5,-99.9,-29.53,SW,233,5.2,12.2,-999,0.01,,,-99.99,,2013-02-19 18:21:00,
2013-02-19 10:26:00,51.1,-99.9,-29.53,WSW,253,0.0,7.5,-999,0.00,,,-99.99,,2013-02-19 18:26:00,
2013-02-19 10:31:00,50.9,-99.9,-29.53,SW,234,5.2,11.6,-999,0.00,,,-99.99,,2013-02-19 18:31:00,
2013-02-19 10:36:00,50.7,-99.9,-29.53,South,191,0.0,6.3,-999,0.00,,,-99.99,,2013-02-19 18:36:00,
2013-02-19 10:41:00,50.4,-99.9,-29.53,SW,219,0.0,14.4,-999,0.00,,,-99.99,,2013-02-19 18:41:00,
2013-02-19 10:46:00,50.5,-99.9,-29.53,WSW,250,0.0,15.5,-999,0.00,,,-99.99,,2013-02-19 18:46:00,
2013-02-19 10:52:00,50.3,-99.9,-29.53,NNW,331,0.0,4.2,-999,0.00,,,-99.99,,2013-02-19 18:52:00,
2013-02-19 10:57:00,50.0,-99.9,-29.53,WNW,296,6.0,6.0,-999,0.00,,,-99.99,,2013-02-19 18:57:00,
2013-02-19 11:02:00,49.0,-99.9,-29.53,WNW,300,4.2,10.4,-999,0.00,,,-99.99,,2013-02-19 19:02:00,
2013-02-19 11:07:00,48.2,-99.9,-29.53,NW,312,4.6,10.6,-999,0.00,,,-99.99,,2013-02-19 19:07:00,
2013-02-19 11:12:00,48.0,-99.9,-29.53,NW,317,0.0,10.7,-999,0.00,,,-99.99,,2013-02-19 19:12:00,
2013-02-19 11:17:00,48.5,-99.9,-29.53,NW,319,0.0,9.4,-999,0.00,,,-99.99,,2013-02-19 19:17:00,
2013-02-19 11:22:00,48.7,-99.9,-29.53,WNW,300,0.0,4.5,-999,0.00,,,-99.99,,2013-02-19 19:22:00,
2013-02-19 11:28:00,48.8,-99.9,-29.53,WNW,300,0.0,0.0,-999,0.00,,,-99.99,,2013-02-19 19:28:00,
2013-02-19 11:33:00,48.9,-99.9,-29.53,WNW,300,0.0,0.0,-999,0.00,,,-99.99,,2013-02-19 19:33:00,
2013-02-19 11:38:00,48.8,-99.9,-29.53,WNW,300,0.0,0.0,-999,0.00,,,-99.99,,2013-02-19 19:38:00,
2013-02-19 11:43:00,48.9,-99.9,-29.53,WNW,300,0.0,0.0,-999,0.00,,,-99.99,,2013-02-19 19:43:00,
2013-02-19 11:48:00,48.9,-99.9,-29.53,SW,233,5.8,5.8,-999,0.00,,,-99.99,,2013-02-19 19:48:00,
2013-02-19 11:53:00,49.3,-99.9,-29.53,SW,222,0.0,6.1,-999,0.00,,,-99.99,,2013-02-19 19:53:00,
2013-02-19 11:58:00,49.7,-99.9,-29.53,SW,222,0.0,0.0,-999,0.00,,,-99.99,,2013-02-19 19:58:00,
2013-02-19 12:04:00,49.9,-99.9,-29.53,SW,222,0.0,0.0,-999,0.00,,,-99.99,,2013-02-19 20:04:00,
2013-02-19 12:09:00,50.0,-99.9,-29.53,SW,222,0.0,0.0,-999,0.00,,,-99.99,,2013-02-19 20:09:00,
2013-02-19 12:14:00,50.2,-99.9,-29.53,SW,234,0.0,2.9,-999,0.00,,,-99.99,,2013-02-19 20:14:00,
2013-02-19 12:19:00,50.4,-99.9,-29.53,WSW,243,0.0,2.7,-999,0.00,,,-99.99,,2013-02-19 20:19:00,
2013-02-19 12:24:00,50.6,-99.9,-29.53,WSW,243,0.0,0.0,-999,0.00,,,-99.99,,2013-02-19 20:24:00,
2013-02-19 12:29:00,50.4,-99.9,-29.53,WSW,243,0.0,0.0,-999,0.00,,,-99.99,,2013-02-19 20:29:00,
2013-02-19 12:35:00,50.2,-99.9,-29.53,WSW,243,0.0,0.0,-999,0.00,,,-99.99,,2013-02-19 20:35:00,
2013-02-19 12:40:00,50.0,-99.9,-29.53,WNW,282,0.0,6.0,-999,0.00,,,-99.99,,2013-02-19 20:40:00,
2013-02-19 12:45:00,49.3,-99.9,-29.53,WSW,254,6.4,15.8,-999,0.00,,,-99.99,,2013-02-19 20:45:00,
2013-02-19 12:50:00,47.5,-99.9,-29.53,NW,310,11.6,22.5,-999,0.00,,,-99.99,,2013-02-19 20:50:00,
2013-02-19 12:55:00,46.6,-99.9,-29.53,NW,306,14.2,19.3,-999,0.00,,,-99.99,,2013-02-19 20:55:00,
2013-02-19 13:00:00,46.6,-99.9,-29.53,West,281,10.9,19.6,-999,0.00,,,-99.99,,2013-02-19 21:00:00,
2013-02-19 13:11:00,46.6,-99.9,-29.53,NW,326,9.1,11.1,-999,0.00,,,-99.99,,2013-02-19 21:11:00,
2013-02-19 13:16:00,47.0,-99.9,-29.53,NW,306,0.0,9.2,-999,0.00,,,-99.99,,2013-02-19 21:16:00,
2013-02-19 13:21:00,47.0,-99.9,-29.53,NW,323,7.0,9.6,-999,0.00,,,-99.99,,2013-02-19 21:21:00,
2013-02-19 13:26:00,47.1,-99.9,-29.53,NNW,331,0.0,8.5,-999,0.00,,,-99.99,,2013-02-19 21:26:00,
2013-02-19 13:31:00,47.5,-99.9,-29.53,NW,326,0.0,9.0,-999,0.00,,,-99.99,,2013-02-19 21:31:00,
2013-02-19 13:36:00,48.0,-99.9,-29.53,WNW,299,0.0,7.0,-999,0.00,,,-99.99,,2013-02-19 21:36:00,
2013-02-19 13:42:00,48.1,-99.9,-29.53,WNW,296,0.0,10.5,-999,0.00,,,-99.99,,2013-02-19 21:42:00,
2013-02-19 13:47:00,48.5,-99.9,-29.53,WNW,298,4.4,9.7,-999,0.00,,,-99.99,,2013-02-19 21:47:00,
2013-02-19 13:52:00,48.6,-99.9,-29.53,NNW,347,0.0,6.8,-999,0.00,,,-99.99,,2013-02-19 21:52:00,
2013-02-19 13:57:00,49.1,-99.9,-29.53,NNW,333,0.0,5.2,-999,0.00,,,-99.99,,2013-02-19 21:57:00,
2013-02-19 14:02:00,48.5,-99.9,-29.53,NNW,333,0.0,0.0,-999,0.00,,,-99.99,,2013-02-19 22:02:00,
2013-02-19 14:07:00,49.0,-99.9,-29.53,NNW,333,0.0,0.0,-999,0.00,,,-99.99,,2013-02-19 22:07:00,
2013-02-19 14:12:00,49.1,-99.9,-29.53,NNW,333,0.0,3.1,-999,0.00,,,-99.99,,2013-02-19 22:12:00,
2013-02-19 14:18:00,49.4,-99.9,-29.53,NNW,333,0.0,0.0,-999,0.00,,,-99.99,,2013-02-19 22:18:00,
2013-02-19 14:23:00,49.6,-99.9,-29.53,NNW,334,4.7,8.1,-999,0.00,,,-99.99,,2013-02-19 22:23:00,
2013-02-19 14:28:00,48.8,-99.9,-29.53,NNW,347,0.0,9.0,-999,0.00,,,-99.99,,2013-02-19 22:28:00,
2013-02-19 14:33:00,49.3,-99.9,-29.53,NNW,347,0.0,0.0,-999,0.00,,,-99.99,,2013-02-19 22:33:00,
2013-02-19 14:38:00,48.4,-99.9,-29.53,WNW,299,0.0,10.4,-999,0.00,,,-99.99,,2013-02-19 22:38:00,
2013-02-19 14:43:00,47.8,-99.9,-29.53,NW,322,6.4,12.2,-999,0.00,,,-99.99,,2013-02-19 22:43:00,
2013-02-19 14:49:00,47.4,-99.9,-29.53,NW,310,12.7,14.5,-999,0.00,,,-99.99,,2013-02-19 22:49:00,
2013-02-19 14:54:00,47.3,-99.9,-29.53,WNW,299,4.3,12.1,-999,0.00,,,-99.99,,2013-02-19 22:54:00,
2013-02-19 14:59:00,47.9,-99.9,-29.53,NNW,331,0.0,9.8,-999,0.00,,,-99.99,,2013-02-19 22:59:00,
2013-02-19 15:02:00,63.2,-99.9,-29.53,SW,222,5.6,11.3,-999,0.00,,,-99.99,,2013-02-19 23:02:00,
2013-02-19 15:04:00,48.2,-99.9,-29.53,NW,310,0.0,5.5,-999,0.00,,,-99.99,,2013-02-19 23:04:00,
2013-02-19 15:09:00,48.6,-99.9,-29.53,WSW,248,0.0,8.7,-999,0.00,,,-99.99,,2013-02-19 23:09:00,
2013-02-19 15:14:00,49.2,-99.9,-29.53,WSW,248,0.0,3.0,-999,0.00,,,-99.99,,2013-02-19 23:14:00,
2013-02-19 15:20:00,49.0,-99.9,-29.53,NNW,345,4.1,7.5,-999,0.00,,,-99.99,,2013-02-19 23:20:00,
2013-02-19 15:25:00,48.8,-99.9,-29.53,WSW,257,0.0,6.3,-999,0.00,,,-99.99,,2013-02-19 23:25:00,
2013-02-19 15:30:00,48.8,-99.9,-29.53,SW,230,0.0,6.5,-999,0.00,,,-99.99,,2013-02-19 23:30:00,
2013-02-19 15:35:00,49.2,-99.9,-29.53,WSW,248,0.0,7.2,-999,0.00,,,-99.99,,2013-02-19 23:35:00,
2013-02-19 15:40:00,49.1,-99.9,-29.53,WNW,303,0.0,6.2,-999,0.00,,,-99.99,,2013-02-19 23:40:00,
2013-02-19 15:45:00,49.2,-99.9,-29.53,WNW,303,0.0,0.0,-999,0.00,,,-99.99,,2013-02-19 23:45:00,
2013-02-19 15:51:00,49.3,-99.9,-29.53,WNW,303,0.0,0.0,-999,0.00,,,-99.99,,2013-02-19 23:51:00,
2013-02-19 15:56:00,49.3,-99.9,-29.53,WNW,303,0.0,0.0,-999,0.00,,,-99.99,,2013-02-19 23:56:00,
2013-02-19 16:01:00,49.1,-99.9,-29.53,WNW,303,0.0,0.0,-999,0.00,,,-99.99,,2013-02-20 00:01:00,
2013-02-19 16:02:00,72.0,-99.9,-29.53,NW,317,0.0,5.8,-999,0.00,,,-99.99,,2013-02-20 00:02:00,
2013-02-19 16:11:00,48.9,-99.9,-29.53,West,277,0.0,5.2,-999,0.00,,,-99.99,,2013-02-20 00:11:00,
2013-02-19 16:16:00,49.1,-99.9,-29.53,West,277,0.0,0.0,-999,0.00,,,-99.99,,2013-02-20 00:16:00,
2013-02-19 16:21:00,48.1,-99.9,-29.53,NW,324,6.0,11.2,-999,0.00,,,-99.99,,2013-02-20 00:21:00,
2013-02-19 16:27:00,48.0,-99.9,-29.53,NW,305,0.0,7.8,-999,0.00,,,-99.99,,2013-02-20 00:27:00,
2013-02-19 16:32:00,47.9,-99.9,-29.53,West,270,0.0,7.2,-999,0.00,,,-99.99,,2013-02-20 00:32:00,
2013-02-19 16:37:00,48.3,-99.9,-29.53,West,270,0.0,0.0,-999,0.00,,,-99.99,,2013-02-20 00:37:00,
2013-02-19 16:42:00,48.2,-99.9,-29.53,West,270,0.0,0.0,-999,0.00,,,-99.99,,2013-02-20 00:42:00,
2013-02-19 16:47:00,48.6,-99.9,-29.53,West,270,0.0,0.0,-999,0.00,,,-99.99,,2013-02-20 00:47:00,
2013-02-19 16:52:00,48.6,-99.9,-29.53,WSW,243,0.0,4.5,-999,0.00,,,-99.99,,2013-02-20 00:52:00,
2013-02-19 16:57:00,48.3,-99.9,-29.53,WSW,243,0.0,0.0,-999,0.00,,,-99.99,,2013-02-20 00:57:00,
2013-02-19 17:02:00,76.5,-99.9,-29.53,WNW,288,0.0,6.8,-999,0.00,,,-99.99,,2013-02-20 01:02:00,
2013-02-19 17:03:00,47.9,-99.9,-29.53,WSW,243,0.0,0.0,-999,0.00,,,-99.99,,2013-02-20 01:03:00,
2013-02-19 17:08:00,48.1,-99.9,-29.53,WSW,243,0.0,0.0,-999,0.00,,,-99.99,,2013-02-20 01:08:00,
2013-02-19 17:13:00,47.7,-99.9,-29.53,WNW,292,0.0,13.6,-999,0.00,,,-99.99,,2013-02-20 01:13:00,
2013-02-19 17:18:00,47.4,-99.9,-29.53,West,261,0.0,5.8,-999,0.00,,,-99.99,,2013-02-20 01:18:00,
2013-02-19 17:23:00,47.5,-99.9,-29.53,West,261,0.0,0.0,-999,0.00,,,-99.99,,2013-02-20 01:23:00,
2013-02-19 17:28:00,47.5,-99.9,-29.53,West,261,0.0,0.0,-999,0.00,,,-99.99,,2013-02-20 01:28:00,
2013-02-19 17:34:00,47.4,-99.9,-29.53,West,261,0.0,0.0,-999,0.00,,,-99.99,,2013-02-20 01:34:00,
2013-02-19 17:39:00,47.3,-99.9,-29.53,West,261,0.0,0.0,-999,0.00,,,-99.99,,2013-02-20 01:39:00,
2013-02-19 17:44:00,47.1,-99.9,-29.53,SW,222,0.0,5.7,-999,0.00,,,-99.99,,2013-02-20 01:44:00,
2013-02-19 17:49:00,47.0,-99.9,-29.53,WSW,251,0.0,5.6,-999,0.00,,,-99.99,,2013-02-20 01:49:00,
2013-02-19 17:54:00,46.9,-99.9,-29.53,WSW,255,0.0,5.1,-999,0.00,,,-99.99,,2013-02-20 01:54:00,
2013-02-19 17:59:00,46.9,-99.9,-29.53,WSW,255,0.0,2.7,-999,0.00,,,-99.99,,2013-02-20 01:59:00,
2013-02-19 18:02:00,73.4,-99.9,-29.53,NNE,14,0.0,0.0,-999,0.00,,,-99.99,,2013-02-20 02:02:00,
2013-02-19 18:04:00,46.9,-99.9,-29.53,West,262,0.0,5.0,-999,0.00,,,-99.99,,2013-02-20 02:04:00,
2013-02-19 18:10:00,47.0,-99.9,-29.53,West,278,0.0,7.3,-999,0.00,,,-99.99,,2013-02-20 02:10:00,
2013-02-19 18:15:00,46.8,-99.9,-29.53,West,278,0.0,0.0,-999,0.00,,,-99.99,,2013-02-20 02:15:00,
2013-02-19 18:20:00,46.9,-99.9,-29.53,NW,307,0.0,5.2,-999,0.00,,,-99.99,,2013-02-20 02:20:00,
2013-02-19 18:25:00,46.8,-99.9,-29.53,NW,307,0.0,0.0,-999,0.00,,,-99.99,,2013-02-20 02:25:00,
2013-02-19 18:30:00,46.9,-99.9,-29.53,NW,307,0.0,0.0,-999,0.00,,,-99.99,,2013-02-20 02:30:00,
2013-02-19 18:35:00,46.5,-99.9,-29.53,NW,307,0.0,0.0,-999,0.00,,,-99.99,,2013-02-20 02:35:00,
2013-02-19 18:41:00,46.6,-99.9,-29.53,SSW,194,0.0,5.4,-999,0.00,,,-99.99,,2013-02-20 02:41:00,
2013-02-19 18:46:00,46.7,-99.9,-29.53,SSW,194,0.0,0.0,-999,0.00,,,-99.99,,2013-02-20 02:46:00,
2013-02-19 18:51:00,46.8,-99.9,-29.53,SSW,194,0.0,0.0,-999,0.00,,,-99.99,,2013-02-20 02:51:00,
2013-02-19 18:56:00,46.9,-99.9,-29.53,SSW,194,0.0,0.0,-999,0.00,,,-99.99,,2013-02-20 02:56:00,
2013-02-19 19:01:00,47.1,-99.9,-29.53,SSW,194,0.0,0.0,-999,0.00,,,-99.99,,2013-02-20 03:01:00,
2013-02-19 19:02:00,67.0,-99.9,-29.53,West,261,0.0,7.7,-999,0.00,,,-99.99,,2013-02-20 03:02:00,
2013-02-19 19:11:00,46.9,-99.9,-29.53,SSW,194,0.0,0.0,-999,0.00,,,-99.99,,2013-02-20 03:11:00,
2013-02-19 19:17:00,46.6,-99.9,-29.53,SSW,194,0.0,0.0,-999,0.00,,,-99.99,,2013-02-20 03:17:00,
2013-02-19 19:22:00,46.4,-99.9,-29.53,SW,230,4.5,6.3,-999,0.00,,,-99.99,,2013-02-20 03:22:00,
2013-02-19 19:27:00,46.2,-99.9,-29.53,SW,230,0.0,0.0,-999,0.00,,,-99.99,,2013-02-20 03:27:00,
2013-02-19 19:32:00,46.1,-99.9,-29.53,SW,230,0.0,0.0,-999,0.00,,,-99.99,,2013-02-20 03:32:00,
2013-02-19 19:37:00,46.3,-99.9,-29.53,SW,230,0.0,0.0,-999,0.00,,,-99.99,,2013-02-20 03:37:00,
2013-02-19 19:42:00,46.4,-99.9,-29.53,SSW,203,0.0,4.9,-999,0.00,,,-99.99,,2013-02-20 03:42:00,
2013-02-19 19:47:00,46.4,-99.9,-29.53,SSW,205,0.0,4.4,-999,0.00,,,-99.99,,2013-02-20 03:47:00,
2013-02-19 19:53:00,46.3,-99.9,-29.53,SSW,205,3.1,3.1,-999,0.00,,,-99.99,,2013-02-20 03:53:00,
2013-02-19 19:58:00,46.2,-99.9,-29.53,NNE,26,0.0,6.5,-999,0.00,,,-99.99,,2013-02-20 03:58:00,
2013-02-19 20:02:00,70.5,-99.9,-29.53,WNW,300,0.0,0.0,-999,0.00,,,-99.99,,2013-02-20 04:02:00,
2013-02-19 20:03:00,46.1,-99.9,-29.53,NNE,26,0.0,0.0,-999,0.00,,,-99.99,,2013-02-20 04:03:00,
2013-02-19 20:08:00,46.0,-99.9,-29.53,NW,310,0.0,3.2,-999,0.00,,,-99.99,,2013-02-20 04:08:00,
2013-02-19 20:13:00,45.8,-99.9,-29.53,NW,310,0.0,0.0,-999,0.00,,,-99.99,,2013-02-20 04:13:00,
2013-02-19 20:18:00,46.0,-99.9,-29.53,NW,310,0.0,0.0,-999,0.00,,,-99.99,,2013-02-20 04:18:00,
2013-02-19 20:24:00,46.1,-99.9,-29.53,NW,310,0.0,0.0,-999,0.00,,,-99.99,,2013-02-20 04:24:00,
2013-02-19 20:29:00,46.2,-99.9,-29.53,NNW,336,0.0,5.2,-999,0.00,,,-99.99,,2013-02-20 04:29:00,
2013-02-19 20:34:00,46.2,-99.9,-29.53,NNW,336,0.0,0.0,-999,0.00,,,-99.99,,2013-02-20 04:34:00,
2013-02-19 20:39:00,46.0,-99.9,-29.53,NNW,336,0.0,0.0,-999,0.00,,,-99.99,,2013-02-20 04:39:00,
2013-02-19 20:44:00,46.1,-99.9,-29.53,West,270,0.0,5.2,-999,0.00,,,-99.99,,2013-02-20 04:44:00,
2013-02-19 20:49:00,46.2,-99.9,-29.53,West,270,0.0,0.0,-999,0.00,,,-99.99,,2013-02-20 04:49:00,
2013-02-19 20:54:00,46.3,-99.9,-29.53,West,270,0.0,0.0,-999,0.00,,,-99.99,,2013-02-20 04:54:00,
2013-02-19 21:00:00,46.3,-99.9,-29.53,West,270,0.0,0.0,-999,0.00,,,-99.99,,2013-02-20 05:00:00,
2013-02-19 21:02:00,67.2,-99.9,-29.53,NNE,23,0.0,0.0,-999,0.00,,,-99.99,,2013-02-20 05:02:00,
2013-02-19 21:10:00,46.1,-99.9,-29.53,NW,322,0.0,7.1,-999,0.00,,,-99.99,,2013-02-20 05:10:00,
2013-02-19 21:15:00,46.3,-99.9,-29.53,SSW,202,0.0,6.2,-999,0.00,,,-99.99,,2013-02-20 05:15:00,
2013-02-19 21:20:00,46.3,-99.9,-29.53,WSW,248,0.0,5.1,-999,0.00,,,-99.99,,2013-02-20 05:20:00,
2013-02-19 21:25:00,46.3,-99.9,-29.53,WSW,248,0.0,0.0,-999,0.00,,,-99.99,,2013-02-20 05:25:00,
2013-02-19 21:31:00,46.3,-99.9,-29.53,WSW,248,0.0,0.0,-999,0.00,,,-99.99,,2013-02-20 05:31:00,
2013-02-19 21:36:00,46.0,-99.9,-29.53,WNW,291,0.0,9.5,-999,0.00,,,-99.99,,2013-02-20 05:36:00,
2013-02-19 21:41:00,45.9,-99.9,-29.53,NW,320,3.4,8.3,-999,0.00,,,-99.99,,2013-02-20 05:41:00,
2013-02-19 21:46:00,45.8,-99.9,-29.53,NNW,340,3.2,6.4,-999,0.00,,,-99.99,,2013-02-20 05:46:00,
2013-02-19 21:51:00,45.7,-99.9,-29.53,NNW,337,0.0,6.9,-999,0.00,,,-99.99,,2013-02-20 05:51:00,
2013-02-19 21:56:00,45.6,-99.9,-29.53,WNW,284,0.0,5.5,-999,0.00,,,-99.99,,2013-02-20 05:56:00,
2013-02-19 22:01:00,45.5,-99.9,-29.53,WNW,284,0.0,0.0,-999,0.00,,,-99.99,,2013-02-20 06:01:00,
2013-02-19 22:02:00,63.3,-99.9,-29.53,NNW,336,8.8,8.9,-999,0.00,,,-99.99,,2013-02-20 06:02:00,
2013-02-19 22:12:00,45.8,-99.9,-29.53,WNW,284,0.0,0.0,-999,0.00,,,-99.99,,2013-02-20 06:12:00,
2013-02-19 22:17:00,45.8,-99.9,-29.53,WNW,284,0.0,0.0,-999,0.00,,,-99.99,,2013-02-20 06:17:00,
2013-02-19 22:22:00,45.8,-99.9,-29.53,WNW,284,0.0,0.0,-999,0.00,,,-99.99,,2013-02-20 06:22:00,
2013-02-19 22:27:00,45.8,-99.9,-29.53,WNW,284,0.0,0.0,-999,0.00,,,-99.99,,2013-02-20 06:27:00,
2013-02-19 22:32:00,45.6,-99.9,-29.53,West,272,0.0,3.4,-999,0.00,,,-99.99,,2013-02-20 06:32:00,
2013-02-19 22:38:00,45.4,-99.9,-29.53,West,272,0.0,0.0,-999,0.00,,,-99.99,,2013-02-20 06:38:00,
2013-02-19 22:43:00,45.5,-99.9,-29.53,SW,219,0.0,4.4,-999,0.00,,,-99.99,,2013-02-20 06:43:00,
2013-02-19 22:48:00,45.9,-99.9,-29.53,SW,219,0.0,0.0,-999,0.00,,,-99.99,,2013-02-20 06:48:00,
2013-02-19 22:53:00,46.4,-99.9,-29.53,SW,219,0.0,0.0,-999,0.00,,,-99.99,,2013-02-20 06:53:00,
2013-02-19 22:58:00,46.3,-99.9,-29.53,SW,219,0.0,0.0,-999,0.00,,,-99.99,,2013-02-20 06:58:00,
2013-02-19 23:03:00,46.0,-99.9,-29.53,SW,219,0.0,0.0,-999,0.00,,,-99.99,,2013-02-20 07:03:00,
2013-02-19 23:08:00,45.6,-99.9,-29.53,SW,219,0.0,0.0,-999,0.00,,,-99.99,,2013-02-20 07:08:00,
2013-02-19 23:14:00,45.3,-99.9,-29.53,SW,219,0.0,3.2,-999,0.00,,,-99.99,,2013-02-20 07:14:00,
2013-02-19 23:19:00,45.6,-99.9,-29.53,WSW,253,0.0,8.8,-999,0.00,,,-99.99,,2013-02-20 07:19:00,
2013-02-19 23:24:00,45.2,-99.9,-29.53,WSW,253,0.0,0.0,-999,0.00,,,-99.99,,2013-02-20 07:24:00,
2013-02-19 23:29:00,45.4,-99.9,-29.53,WSW,253,0.0,0.0,-999,0.00,,,-99.99,,2013-02-20 07:29:00,
2013-02-19 23:34:00,45.7,-99.9,-29.53,WSW,253,0.0,0.0,-999,0.00,,,-99.99,,2013-02-20 07:34:00,
2013-02-19 23:39:00,45.7,-99.9,-29.53,WSW,253,0.0,0.0,-999,0.00,,,-99.99,,2013-02-20 07:39:00,
2013-02-19 23:45:00,45.8,-99.9,-29.53,WSW,253,0.0,0.0,-999,0.00,,,-99.99,,2013-02-20 07:45:00,
2013-02-19 23:50:00,45.9,-99.9,-29.53,WSW,253,0.0,0.0,-999,0.00,,,-99.99,,2013-02-20 07:50:00,
2013-02-19 23:55:00,46.1,-99.9,-29.53,WSW,253,0.0,0.0,-999,0.00,,,-99.99,,2013-02-20 07:55:00,